Погода Мыс Болванский

Погода Мыс Болванский : погода сейчас, прогноз погоды и архив. Всё, что Вы хотите узнать о погоде Мыс Болванский!

Поиск расширенной информации на нашем сайте:

Полезная информация: Эта компания taganrog.delinet.ru придала наглядности наработки взято отсюда

Другие новости

Новости СМИ2

Главная страница сайта

Новости сайта

03.07.2017

Напоминаем, что на нашем специализированном сайте Метеоцентр.Азия вы можете получить высокодетализированные автоматические прогнозы погоды по пунктам России, СНГ и мира в авиационном формате (включающие направление и скорость ветра, видимость, явления погоды, количество и форму облачности, нижнюю и верхнюю границу облачности).

Рекомендуем: Где купить металлический шкаф litpolmebel.com.

Погода Мыс Болванский - сегодня

Время (UTC), дата Ветер
(°,м/с) 
Видим.   Явления Облачность Т
(°С)
Тd
(°С)
f(%) Тe
(°С)
Pmin
(гПа)
dP
(гПа)
Po
(мм)
O2
(г/м3)
Тmin Tmax R s Состояние
почвы
06 17.08.17 290 (З) 13-16{17}  10 км    8/5 600 м средняя 
[Sc|Ac trans]
+8.1 +6.5 90 +5  1016.1  1.2  761  297           
09 17.08.17 280 (З) 10-13{16}  10 км    3/0 средняя 
[Ac trans]
+9.1 +6.9 86 +6  1017.1  762  296           
12 17.08.17 280 (З) 12-15{17}  10 км    3/0 средняя, верхняя 
[Ac trans|Ci fib]
+10.1 +6.7 79 +7  1017.3  0.2  762  295           
15 17.08.17 260 (З) 9-12{15}  10 км    8/0 средняя, верхняя 
[Ac trans|Ci fib]
+10.6 +6.6 76 +8  1016.7  -0.6  762  294    +10.9       
18 17.08.17 230 (ЮЗ) 8-10{12}  10 км    9/0 средняя, верхняя 
[Ac trans|Ci fib]
+9.8 +8.5 92 +8  1014.8  -1.9  760  294           
21 17.08.17 250 (З) 9-11{11}  10 км    10/0 средняя 
[Ac trans]
+11.3 +9.9 91 +10  1011.9  -2.9  758  291           
00 18.08.17 250 (З) 11-13{13}  10 км    9/0 средняя 
[Ac trans]
+11.9 +10.3 90 +11  1008.9  -3  756  290           
03 18.08.17 250 (З) 10-13{15}  10 км  {ливн. осадки}  10/6 720 м средняя 
[Sc|Ac und]
+11.5 +10.8 95 +11  1007.1  -1.8  754  290  +9.6    0.1     
06 18.08.17 270 (З) 11-14{16}  1000 м  дымка{ливн. осадки}  10/10 210 м 
[St]
+10 +9.9 99 +8  1005.6  -1.5  753  291           
09 18.08.17 280 (З) 12-14{16}  1000 м  дымка  10/10 210 м 
[St]
+8.9 +8.9 100 +6  1005.9  0.3  753  292           
12 18.08.17 290 (З) 11-14{15}  4000 м  дымка  10/10 240 м 
[St]
+8.6 +8.6 100 +6  1006.3  0.4  754  293           
15 18.08.17 010 (С) 8-11{15}  10 км    10/10 270 м 
[St]
+5.9 +5.9 100 +3  1007.2  0.9  754  297    +12  0.3     
18 18.08.17 360 (С) 5-11{12}  10 км    9/0 средняя 
[Ac trans]
+5.1 +4.7 97 +3  1011  3.8  757  299           
21 18.08.17 350 (С) 9-12{13}  10 км    6/0 средняя, верхняя 
[Ac trans|Ci fib]
+4.4 +2.6 88 +1  1013.1  759  301           
00 19.08.17 330 (СЗ) 10-13{14}  10 км    4/3 600 м верхняя 
[Sc|Ci fib]
+4.4 +2.8 89 +1  1014.3  1.3  760  301           
03 19.08.17 310 (СЗ) 10-12{14}  20000 м    3/1 600 м средняя 
[Sc|Ac trans]
+5.3 +3.1 86 +2  1015.4  1.1  761  300  +4.1         
06 19.08.17 310 (СЗ) 9-12{12}  20000 м    3/3 300 м 
[Sc]
+6.5 +3.2 79 +3  1016.5  1.1  761  299           
09 19.08.17 320 (СЗ) 6{12}  н/о    4/4 50 м 
[Sc]
+7.3 +2.4 71 +5  1016.8  0.3  762  299           
12 19.08.17 300 (СЗ) 8{10}  20000 м    9/0 средняя 
[Ac trans]
+7.5 +4.1 79 +5  1017.2  0.4  762  298           
15 19.08.17 290 (З) 9-11{11}  20000 м    9/0 средняя 
[Ac trans]
+7.3 +3.7 78 +4  1016.7  -0.5  762  298    +8       
18 19.08.17 290 (З) 7{11}  10 км    10/0 средняя 
[Ac und]
+7 +2.8 75 +5  1016.6  -0.1  761  299           
21 19.08.17 290 (З) 10 км    10/10 1080 м 
[Sc]
+6.5 +1.6 71 +5  1015.9  -0.7  761  299           
00 20.08.17 010 (С) 10 км    10/0 средняя 
[Ac und]
+6.2 +1.9 74 +5  1015.1  -0.8  760  299           
03 20.08.17 150 (ЮВ) 20000 м    10/0 средняя 
[Ac trans]
+5.5 +3.1 85 +4  1014.2  -0.9  760  300  +6         
06 20.08.17 140 (ЮВ) 10 км    10/0 средняя 
[As trans]
+7.2 +3.8 79 +5  1012.5  -1.7  758  297           
Время (UTC), дата Ветер
(°,м/с) 
Видим.   Явления Облачность Т
(°С)
Тd
(°С)
f(%) Тe
(°С)
Pmin
(гПа)
dP
(гПа)
Po
(мм)
O2
(г/м3)
Тmin Tmax R s Состояние
почвы

Для получения пояснительной информации подведите курсор к названию столбца.

ПОГОДА Мыс Болванский - архив

Всё, что Вы хотите узнать о погоде Мыс Болванский - удобно и подробно!

Выберите нужную дату (начиная с 1 января 2015* года) и нажмите кнопку "Найти".
Будут отображены архивные сводки погоды по пункту Мыс Болванский, начиная с указанной даты.


Отображать данные в формате CSV (для использования в таблицах Excel)


Внимание! Наш архив погоды предназначен исключительно для личного некоммерческого использования в познавательных целях. Если Вам необходимы официальные справки о состоянии погоды (для производственных, юридических, коммерческих и т.п. целей), обращайтесь в органы Росгидромета.

*Примечание: данная дата относится к архиву по метеостанциям СССР (Россия, СНГ, Балтия).
Архив по метеостанциям Зарубежной Европы и Азии (кроме Китая) хранится 10 дней, по другим регионам земного шара (Китай, Африка, Америка, Австралия, Океания) - 1 день.

Мыс Болванский - район местоположения метеостанции


Название, широта, долгота, высота метеостанции:
Мыс Болванский 70.4°ш. 59.1°д. 13 м над ур. моря [Российская Федерация]

Дополнительная информация

В oтличие oт бoльшинства пoгoдных сайтoв мы публикуем пoдрoбную метеoинфoрмацию в детальнoм прoфессиoнальнoм фoрмате.

Характеристики температуры и влажнoсти вoздуха измеряются на высoте 2 м в тени вдали oт зданий и деревьев.
Скoрoсть ветра измеряется на высoте 10 м (на урoвне рoста челoвека скoрoсть ветра ниже в 1.5-2 раза). Если метеoстанция нахoдится в гoрoде или в лесу, тo скoрoсть ветра занижена на 2-4 м/с пo сравнению с oткрытым местoм. Скoрoсть ветра над акватoриями крупных рек и oзёр, а также на вершинах хoлмoв на 2-5 м/с выше, чем в oбычных услoвиях.
Атмoсфернoе давление в разных тoчках местнoсти мoжет значительнo oтличаться oт давления на метеoстанции, в зависимoсти oт услoвий рельефа (при пoдъёме на 10 м давление пoнижается примернo на 1 мм рт.ст.).